Terminal Aerodrome Forecast
Issued by NWS

Home | Current Version | Previous Version | Graphics & Text | Print | Product List | Glossary On
Versions: 1 2 3 4 5 6 7 8 9 10 11 12 13 14 15
000
FTUS45 KGGW 160500
TAFGDV
TAF
KGDV 160520Z 1606/1706 01011KT P6SM VCSH BKN090
     FM161200 02012KT P6SM BKN035
     FM161800 05012KT P6SM OVC050
      AMD LTD TO CLD VIS AND WIND=

USA.gov is the U.S. government's official web portal to all federal, state and local government web resources and services.